LSZB

Bern Belp Airport

Airport
ICAO code
LSZB
IATA Code
BRN
Summary
ICAO Region
EUR
ICAO Territory
Location

Belp, Bern

Serving
Bern
Elevation
1674 ft
Coordinates
46° 54' 51" N , 7° 29' 50" E
KCC
Metar
Observation
LSZB 270520Z VRB03KT 9999 OVC025 M01/M05 Q1015
Station
Bern / Belp
Date/Time
2023-01-27 05:20:00
Wind speed
03 kts
Lowest cloud amount
overcast
Temperature
-1°C
Dew point
-5°C
Humidity
74%
QNH
1015 hPa
Weather condition
n/a

Bern Airport is an airport serving Bern, the capital of Switzerland. The airport is located within the town limits of Belp.

Climatology

Humid “subtropical” climate (Köppen climate classification Cfa)

Runways

Designator Length Width Surface Rops
14R/32L 648 30 GRS No/No
14L/32R 650 30 GRS No/No
14/32 1510 30 ASP Yes/Yes

SKYbrary Partners:

Safety knowledge contributed by: